Location: Newark
(44.4167°N, 26.1000°E)
Time: 22:00:36
(UTC+00:00)

Envisat - Visible Passes

Search period start: 20 September 2020 00:00
Search period end: 30 September 2020 00:00
Orbit: 764 x 766 km, 98.1° (Epoch: 20 September)

Date Brightness Start Highest point End Pass type
(mag) Time Alt. Az. Time Alt. Az. Time Alt. Az.
20 Sep 6.0 03:17:26 10° NE 03:21:08 20° E 03:24:48 10° SE visible
22 Sep 6.0 16:38:38 10° SW 16:42:22 20° W 16:46:07 10° NW visible
23 Sep 6.1 03:06:35 10° NE 03:09:39 16° E 03:12:41 10° SE visible
24 Sep 6.6 17:06:25 10° WSW 17:08:07 12° W 17:09:50 10° WNW visible
25 Sep 5.5 03:31:03 10° NE 03:35:21 27° E 03:39:37 10° SSE visible
26 Sep 6.4 02:56:03 10° ENE 02:58:08 12° E 03:00:13 10° ESE visible
27 Sep 6.3 16:53:47 10° WSW 16:56:37 15° W 16:59:27 10° NW visible
28 Sep 5.9 03:20:01 10° NE 03:23:53 22° E 03:27:45 10° SE visible
